Find Local Weather

World > North America > United States > Georgia

Cleveland, Georgia Regional Weather

Lat: 34.60N, Lon: 83.76W
Wx Zone: GAZ016
Feedback
Expires:201805231700;;411162
ASUS42 KFFC 231610
RWRGA 
WEATHER ROUNDUP FOR GEORGIA
NATIONAL WEATHER SERVICE PEACHTREE CITY GA
1200 PM EDT WED MAY 23 2018

NOTE: "FAIR" INDICATES FEW OR NO CLOUDS BELOW 12,000 FEET WITH NO
SIGNIFICANT WEATHER AND/OR OBSTRUCTIONS TO VISIBILITY. 

* = USE WITH CAUTION. THE STATIONS MARKED WITH AN ASTERISK MAY NOT
REPORT WEATHER SUCH AS PRECIPITATION, FOG, OR THUNDER AND ARE NOT 
QUALITY CONTROLLED BY NWS.

THE REMARK "TC" DENOTES TEMPERATURE READING IN DEGREES CELSIUS.


GAZ001>058-231700-
NORTH GEORGIA
  
CITY           SKY/WX    TMP DP  RH WIND       PRES   REMARKS
ATLANTA        PTSUNNY   77  68  73 NE7       30.11S                  
ATHENS         LGT RAIN  72  71  97 E5        30.13R                  
CHAMBLEE       CLOUDY    73  68  84 NE5       30.11S                  
PEACHTREE CITY CLOUDY    77  70  79 W7        30.11S                  
ROME           CLOUDY    80  70  71 VRB5      30.10S                  
WEST ATLANTA   CLOUDY    75  71  87 N5        30.11S                  
GAINESVILLE    CLOUDY    73  70  90 E6        30.14S                  
CARTERSVILLE   CLOUDY    77  68  73 CALM      30.12S                  

  
CITY           SKY/WX    TMP DP  RH WIND       PRES   REMARKS
DALTON*        FAIR      79  68  69 N3        30.13S                  
LAWRENCEVILLE* LGT RAIN  70  70 100 E7        30.12S                  
MARIETTA       PTSUNNY   74  69  85 NE5       30.12R                  
KENNESAW*      PTSUNNY   75  68  78 NW3       30.13R                  
CANTON*        FAIR      79  64  61 CALM      30.13F                  
BLAIRSVILLE*   FAIR      76  67  73 NW3       30.16S                  
$$


SKY/WX - Weather  TMP - Temperature  DP - Dewpoint  RH - Relative Humidity
WIND - Wind Direction/Speed PRES - Barometric Pressure